| time (UTC) | temp F | wind direction | speed MPH | gust MPH | rain 1hr in | rain 24hr in | rain mn in | humidity % | barometer mb |
| 20260901201213 | 85 | 66 | 13.0 | 16.0 | 0.00 | 0.03 | 0.01 | 81 | 1015.9 |
| 20260901200709 | 85 | 68 | 12.0 | 15.0 | 0.00 | 0.03 | 0.01 | 80 | 1016.0 |
| 20260901200214 | 85 | 67 | 11.0 | 18.0 | 0.00 | 0.19 | 0.01 | 79 | 1016.0 |
| 20260901195717 | 85 | 64 | 10.0 | 20.0 | 0.00 | 0.19 | 0.01 | 81 | 1016.1 |
| 20260901195222 | 86 | 66 | 17.0 | 20.0 | 0.00 | 0.19 | 0.01 | 80 | 1016.2 |
| 20260901194726 | 86 | 75 | 11.0 | 15.0 | 0.00 | 0.19 | 0.01 | 78 | 1016.0 |
| 20260901194231 | 86 | 66 | 12.0 | 15.0 | 0.00 | 0.19 | 0.01 | 79 | 1016.1 |
| 20260901193715 | 86 | 63 | 12.0 | 15.0 | 0.00 | 0.19 | 0.01 | 78 | 1016.0 |
| 20260901193225 | 86 | 56 | 10.0 | 13.0 | 0.00 | 0.19 | 0.01 | 79 | 1016.0 |
| 20260901192708 | 86 | 63 | 10.0 | 14.0 | 0.00 | 0.19 | 0.01 | 78 | 1016.0 |
| 20260901192213 | 87 | 78 | 12.0 | 14.0 | 0.00 | 0.19 | 0.01 | 75 | 1016.1 |
| 20260901191717 | 86 | 82 | 8.0 | 13.0 | 0.00 | 0.19 | 0.01 | 75 | 1016.1 |
| 20260901191222 | 86 | 83 | 10.0 | 14.0 | 0.00 | 0.19 | 0.01 | 76 | 1016.1 |
| 20260901190747 | 86 | 84 | 10.0 | 15.0 | 0.00 | 0.19 | 0.01 | 76 | 1016.0 |
| 20260901190211 | 87 | 69 | 12.0 | 15.0 | 0.00 | 0.19 | 0.01 | 78 | 1016.0 |
| 20260901185716 | 87 | 63 | 10.0 | 13.0 | 0.00 | 0.19 | 0.01 | 76 | 1016.0 |
| 20260901185220 | 87 | 63 | 9.0 | 13.0 | 0.00 | 0.19 | 0.01 | 75 | 1016.0 |
| 20260901184745 | 87 | 82 | 12.0 | 13.0 | 0.00 | 0.19 | 0.01 | 74 | 1016.1 |
| 20260901184209 | 87 | 62 | 9.0 | 12.0 | 0.00 | 0.19 | 0.01 | 74 | 1016.1 |
| 20260901183715 | 87 | 59 | 10.0 | 14.0 | 0.00 | 0.19 | 0.01 | 76 | 1016.1 |
| 20260901183223 | 87 | 54 | 10.0 | 14.0 | 0.00 | 0.19 | 0.01 | 74 | 1016.1 |
| 20260901182708 | 87 | 70 | 7.0 | 12.0 | 0.00 | 0.19 | 0.01 | 75 | 1016.2 |
| 20260901182213 | 87 | 51 | 11.0 | 12.0 | 0.00 | 0.19 | 0.01 | 73 | 1016.3 |
| 20260901181717 | 87 | 58 | 9.0 | 12.0 | 0.00 | 0.19 | 0.01 | 73 | 1016.3 |
| 20260901181222 | 87 | 51 | 8.0 | 14.0 | 0.00 | 0.19 | 0.01 | 73 | 1016.3 |
| 20260901180719 | 87 | 51 | 8.0 | 14.0 | 0.00 | 0.19 | 0.01 | 73 | 1016.3 |
| 20260901180225 | 87 | 54 | 9.0 | 12.0 | 0.00 | 0.19 | 0.01 | 73 | 1016.4 |
| 20260901175709 | 87 | 67 | 6.0 | 8.0 | 0.00 | 0.19 | 0.01 | 71 | 1016.5 |
| 20260901175213 | 87 | 38 | 5.0 | 8.0 | 0.00 | 0.19 | 0.01 | 69 | 1016.5 |
| 20260901174738 | 87 | 61 | 5.0 | 10.0 | 0.00 | 0.19 | 0.01 | 71 | 1016.6 |
| 20260901174221 | 87 | 42 | 7.0 | 10.0 | 0.00 | 0.19 | 0.01 | 71 | 1016.8 |
| 20260901173746 | 87 | 45 | 8.0 | 13.0 | 0.00 | 0.19 | 0.01 | 73 | 1016.8 |
| 20260901173212 | 87 | 49 | 9.0 | 13.0 | 0.00 | 0.19 | 0.01 | 76 | 1016.8 |
| 20260901172716 | 87 | 70 | 9.0 | 13.0 | 0.00 | 0.19 | 0.01 | 75 | 1016.8 |
| 20260901172220 | 87 | 59 | 10.0 | 13.0 | 0.00 | 0.19 | 0.01 | 76 | 1016.9 |
| 20260901171725 | 87 | 75 | 9.0 | 11.0 | 0.00 | 0.19 | 0.01 | 75 | 1017.0 |
| 20260901171210 | 86 | 65 | 8.0 | 12.0 | 0.00 | 0.19 | 0.01 | 76 | 1017.1 |
| 20260901170736 | 86 | 46 | 9.0 | 11.0 | 0.00 | 0.19 | 0.01 | 77 | 1017.2 |
| 20260901170240 | 86 | 79 | 9.0 | 12.0 | 0.00 | 0.19 | 0.01 | 78 | 1017.1 |
| 20260901165743 | 86 | 63 | 9.0 | 14.0 | 0.00 | 0.19 | 0.01 | 78 | 1017.2 |
| 20260901165227 | 86 | 66 | 10.0 | 14.0 | 0.00 | 0.19 | 0.01 | 79 | 1017.2 |
| 20260901164712 | 86 | 58 | 9.0 | 12.0 | 0.00 | 0.19 | 0.01 | 76 | 1017.4 |
| 20260901164217 | 86 | 58 | 9.0 | 11.0 | 0.00 | 0.19 | 0.01 | 76 | 1017.3 |
| 20260901163722 | 86 | 59 | 9.0 | 10.0 | 0.00 | 0.19 | 0.01 | 76 | 1017.3 |
| 20260901163228 | 86 | 62 | 8.0 | 10.0 | 0.00 | 0.19 | 0.01 | 77 | 1017.4 |
| 20260901162717 | 85 | 61 | 6.0 | 10.0 | 0.00 | 0.19 | 0.01 | 77 | 1017.5 |
| 20260901162241 | 85 | 59 | 7.0 | 11.0 | 0.00 | 0.19 | 0.01 | 77 | 1017.5 |
| 20260901161746 | 86 | 51 | 8.0 | 11.0 | 0.00 | 0.19 | 0.01 | 77 | 1017.5 |
| 20260901161209 | 86 | 51 | 7.0 | 10.0 | 0.00 | 0.19 | 0.01 | 78 | 1017.5 |
| 20260901160725 | 85 | 48 | 7.0 | 9.0 | 0.00 | 0.19 | 0.01 | 79 | 1017.5 |
| 20260901122726 | 79 | 47 | 1.0 | 3.0 | 0.00 | 0.19 | 0.01 | 93 | 1017.3 |
| 20260901122211 | 79 | 47 | 2.0 | 4.0 | 0.00 | 0.19 | 0.01 | 93 | 1017.3 |
| 20260901121716 | 79 | 54 | 2.0 | 5.0 | 0.00 | 0.19 | 0.01 | 93 | 1017.2 |
| 20260901121220 | 79 | 43 | 4.0 | 6.0 | 0.00 | 0.19 | 0.01 | 93 | 1017.1 |
| 20260901120717 | 79 | 40 | 4.0 | 6.0 | 0.00 | 0.19 | 0.01 | 93 | 1017.1 |
| 20260901120243 | 79 | 18 | 4.0 | 6.0 | 0.00 | 0.19 | 0.01 | 93 | 1017.1 |
| 20260901115726 | 79 | 9 | 4.0 | 5.0 | 0.00 | 0.19 | 0.01 | 93 | 1017.0 |
| 20260901115211 | 79 | 35 | 3.0 | 5.0 | 0.00 | 0.19 | 0.01 | 93 | 1016.9 |
| 20260901114737 | 79 | 32 | 4.0 | 5.0 | 0.01 | 0.19 | 0.01 | 93 | 1016.8 |
| 20260901114224 | 79 | 34 | 4.0 | 4.0 | 0.01 | 0.19 | 0.01 | 93 | 1016.7 |
| 20260901113709 | 79 | 46 | 3.0 | 4.0 | 0.01 | 0.19 | 0.01 | 94 | 1016.7 |
| 20260901113215 | 79 | 38 | 2.0 | 4.0 | 0.01 | 0.19 | 0.01 | 94 | 1016.7 |
| 20260901112719 | 79 | 51 | 2.0 | 4.0 | 0.01 | 0.19 | 0.01 | 94 | 1016.6 |
| 20260901112224 | 79 | 58 | 2.0 | 3.0 | 0.01 | 0.19 | 0.01 | 94 | 1016.5 |
| 20260901111709 | 78 | 54 | 1.0 | 3.0 | 0.01 | 0.19 | 0.01 | 94 | 1016.5 |
| 20260901111214 | 78 | 61 | 2.0 | 3.0 | 0.01 | 0.19 | 0.01 | 94 | 1016.4 |
| 20260901110719 | 78 | 59 | 2.0 | 4.0 | 0.01 | 0.19 | 0.01 | 94 | 1016.3 |
| 20260901110224 | 78 | 55 | 2.0 | 4.0 | 0.01 | 0.19 | 0.01 | 94 | 1016.3 |
| 20260901105708 | 78 | 51 | 2.0 | 4.0 | 0.01 | 0.19 | 0.01 | 94 | 1016.2 |
| 20260901105217 | 78 | 43 | 3.0 | 4.0 | 0.01 | 0.19 | 0.01 | 94 | 1016.2 |
| 20260901104722 | 78 | 40 | 3.0 | 6.0 | 0.00 | 0.18 | 0.00 | 94 | 1016.2 |
| 20260901104228 | 78 | 46 | 3.0 | 6.0 | 0.00 | 0.18 | 0.00 | 94 | 1016.1 |
| 20260901103733 | 78 | 38 | 4.0 | 5.0 | 0.00 | 0.18 | 0.00 | 94 | 1016.1 |
| 20260901103218 | 78 | 47 | 3.0 | 3.0 | 0.00 | 0.18 | 0.00 | 94 | 1016.0 |
| 20260901102723 | 78 | 49 | 1.0 | 2.0 | 0.00 | 0.18 | 0.00 | 94 | 1016.0 |
| 20260901102227 | 78 | 49 | 0.0 | 2.0 | 0.00 | 0.18 | 0.00 | 94 | 1016.0 |
| 20260901101712 | 78 | 49 | 1.0 | 2.0 | 0.00 | 0.18 | 0.00 | 94 | 1015.9 |
| 20260901101216 | 78 | 49 | 1.0 | 2.0 | 0.00 | 0.18 | 0.00 | 94 | 1015.9 |
| 20260901100714 | 78 | 49 | 1.0 | 3.0 | 0.00 | 0.18 | 0.00 | 94 | 1016.0 |
| 20260901100218 | 78 | 49 | 2.0 | 3.0 | 0.00 | 0.18 | 0.00 | 94 | 1015.9 |
| 20260901095722 | 78 | 55 | 2.0 | 3.0 | 0.00 | 0.18 | 0.00 | 94 | 1015.9 |
| 20260901095227 | 78 | 64 | 2.0 | 3.0 | 0.00 | 0.18 | 0.00 | 94 | 1015.9 |
| 20260901094712 | 78 | 79 | 3.0 | 4.0 | 0.00 | 0.18 | 0.00 | 95 | 1015.9 |
| 20260901094238 | 78 | 61 | 2.0 | 5.0 | 0.00 | 0.18 | 0.00 | 95 | 1015.8 |
| 20260901093722 | 78 | 61 | 4.0 | 6.0 | 0.00 | 0.18 | 0.00 | 95 | 1015.9 |
| 20260901093227 | 78 | 45 | 4.0 | 6.0 | 0.00 | 0.18 | 0.00 | 95 | 1015.9 |
| 20260901092712 | 78 | 45 | 5.0 | 6.0 | 0.00 | 0.18 | 0.00 | 94 | 1015.9 |
| 20260901092217 | 78 | 32 | 4.0 | 6.0 | 0.00 | 0.18 | 0.00 | 94 | 1015.9 |
| 20260901091722 | 78 | 35 | 4.0 | 5.0 | 0.00 | 0.18 | 0.00 | 94 | 1015.9 |
| 20260901091227 | 78 | 58 | 3.0 | 4.0 | 0.00 | 0.18 | 0.00 | 94 | 1015.9 |
| 20260901090712 | 78 | 51 | 2.0 | 4.0 | 0.00 | 0.18 | 0.00 | 94 | 1015.9 |
| 20260901090217 | 78 | 30 | 2.0 | 4.0 | 0.00 | 0.18 | 0.00 | 94 | 1015.9 |
| 20260901085741 | 78 | 40 | 2.0 | 3.0 | 0.00 | 0.18 | 0.00 | 94 | 1015.9 |
| 20260901085244 | 79 | 54 | 2.0 | 3.0 | 0.00 | 0.18 | 0.00 | 94 | 1015.8 |
| 20260901084713 | 78 | 37 | 2.0 | 3.0 | 0.00 | 0.18 | 0.00 | 94 | 1015.9 |
| 20260901084218 | 78 | 54 | 2.0 | 4.0 | 0.00 | 0.18 | 0.00 | 94 | 1015.9 |
| 20260901083743 | 78 | 49 | 2.0 | 4.0 | 0.00 | 0.18 | 0.00 | 94 | 1015.9 |
| 20260901083227 | 79 | 56 | 3.0 | 4.0 | 0.00 | 0.18 | 0.00 | 94 | 1015.9 |
| 20260901082712 | 79 | 45 | 2.0 | 6.0 | 0.00 | 0.18 | 0.00 | 94 | 1015.9 |
| 20260901082217 | 79 | 56 | 5.0 | 6.0 | 0.00 | 0.18 | 0.00 | 94 | 1015.9 |
| 20260901081722 | 79 | 56 | 4.0 | 5.0 | 0.00 | 0.18 | 0.00 | 94 | 1015.8 |
| 20260901081226 | 79 | 76 | 3.0 | 5.0 | 0.00 | 0.18 | 0.00 | 94 | 1015.9 |
| 20260901080721 | 79 | 82 | 1.0 | 5.0 | 0.00 | 0.18 | 0.00 | 94 | 1015.8 |
| 20260901080246 | 79 | 97 | 3.0 | 6.0 | 0.00 | 0.18 | 0.00 | 94 | 1015.9 |
| 20260901075709 | 79 | 73 | 5.0 | 6.0 | 0.00 | 0.18 | 0.00 | 94 | 1016.0 |
| 20260901075214 | 79 | 68 | 2.0 | 3.0 | 0.00 | 0.18 | 0.00 | 94 | 1016.0 |
| 20260901074723 | 79 | 57 | 1.0 | 3.0 | 0.00 | 0.18 | 0.00 | 94 | 1015.9 |
| 20260901074228 | 79 | 77 | 2.0 | 4.0 | 0.00 | 0.18 | 0.00 | 94 | 1016.0 |
| 20260901073733 | 79 | 49 | 3.0 | 4.0 | 0.00 | 0.18 | 0.00 | 94 | 1016.0 |
| 20260901073237 | 79 | 38 | 2.0 | 3.0 | 0.00 | 0.18 | 0.00 | 94 | 1016.0 |
| 20260901072741 | 79 | 49 | 2.0 | 3.0 | 0.00 | 0.18 | 0.00 | 94 | 1015.9 |
| 20260901072245 | 79 | 51 | 2.0 | 3.0 | 0.00 | 0.18 | 0.00 | 94 | 1016.0 |
| 20260901071709 | 79 | 23 | 0.0 | 2.0 | 0.00 | 0.18 | 0.00 | 94 | 1016.0 |
| 20260901071234 | 79 | 9 | 0.0 | 3.0 | 0.00 | 0.18 | 0.00 | 94 | 1016.1 |
| 20260901070718 | 79 | 15 | 1.0 | 3.0 | 0.00 | 0.18 | 0.00 | 94 | 1016.1 |
| 20260901070243 | 79 | 9 | 1.0 | 4.0 | 0.00 | 0.18 | 0.00 | 94 | 1016.2 |
| 20260901065728 | 79 | 21 | 3.0 | 4.0 | 0.00 | 0.18 | 0.00 | 94 | 1016.2 |
| 20260901065214 | 79 | 36 | 1.0 | 3.0 | 0.00 | 0.18 | 0.00 | 94 | 1016.3 |
| 20260901064719 | 79 | 16 | 2.0 | 3.0 | 0.00 | 0.18 | 0.00 | 94 | 1016.3 |
| 20260901064225 | 79 | 13 | 2.0 | 3.0 | 0.00 | 0.18 | 0.00 | 94 | 1016.4 |
| 20260901063711 | 79 | 18 | 1.0 | 2.0 | 0.00 | 0.18 | 0.00 | 94 | 1016.4 |
| 20260901063221 | 79 | 351 | 0.0 | 2.0 | 0.00 | 0.18 | 0.00 | 94 | 1016.5 |
| 20260901062727 | 79 | 2 | 1.0 | 3.0 | 0.00 | 0.18 | 0.00 | 94 | 1016.7 |
| 20260901062233 | 79 | 50 | 1.0 | 3.0 | 0.00 | 0.18 | 0.00 | 94 | 1016.6 |
| 20260901061737 | 79 | 63 | 1.0 | 3.0 | 0.00 | 0.18 | 0.00 | 94 | 1016.6 |
| 20260901061221 | 79 | 80 | 2.0 | 4.0 | 0.00 | 0.18 | 0.00 | 94 | 1016.7 |
| 20260901060737 | 79 | 63 | 2.0 | 4.0 | 0.00 | 0.18 | 0.00 | 94 | 1016.7 |
| 20260901060221 | 79 | 47 | 3.0 | 4.0 | 0.00 | 0.18 | 0.00 | 94 | 1016.8 |
| 20260901055726 | 79 | 52 | 2.0 | 4.0 | 0.00 | 0.18 | 0.00 | 94 | 1016.8 |
| 20260901055211 | 79 | 60 | 2.0 | 3.0 | 0.00 | 0.18 | 0.00 | 94 | 1016.9 |
| 20260901054716 | 79 | 67 | 1.0 | 3.0 | 0.00 | 0.18 | 0.00 | 94 | 1016.8 |
| 20260901054221 | 79 | 42 | 1.0 | 3.0 | 0.00 | 0.18 | 0.00 | 94 | 1016.9 |
| 20260901053725 | 79 | 51 | 2.0 | 4.0 | 0.00 | 0.18 | 0.00 | 94 | 1017.0 |
| 20260901053210 | 79 | 49 | 3.0 | 6.0 | 0.00 | 0.18 | 0.00 | 94 | 1017.1 |
| 20260901052735 | 79 | 35 | 4.0 | 6.0 | 0.00 | 0.18 | 0.00 | 93 | 1017.3 |
| 20260901052222 | 79 | 45 | 3.0 | 5.0 | 0.00 | 0.18 | 0.00 | 93 | 1017.3 |
| 20260901051726 | 79 | 55 | 4.0 | 5.0 | 0.00 | 0.18 | 0.00 | 93 | 1017.3 |
| 20260901051231 | 79 | 61 | 2.0 | 3.0 | 0.00 | 0.18 | 0.00 | 93 | 1017.1 |
| 20260901050734 | 79 | 50 | 2.0 | 3.0 | 0.00 | 0.18 | 0.00 | 93 | 1017.2 |
| 20260901050238 | 79 | 32 | 2.0 | 3.0 | 0.00 | 0.18 | 0.00 | 93 | 1017.3 |
| 20260901045741 | 79 | 40 | 1.0 | 2.0 | 0.00 | 0.18 | 0.00 | 93 | 1017.3 |
| 20260901045225 | 79 | 63 | 1.0 | 3.0 | 0.00 | 0.18 | 0.00 | 93 | 1017.3 |
| 20260901044749 | 79 | 30 | 2.0 | 3.0 | 0.00 | 0.18 | 0.00 | 93 | 1017.3 |
| 20260901044214 | 80 | 34 | 2.0 | 3.0 | 0.00 | 0.18 | 0.00 | 93 | 1017.2 |
| 20260901043738 | 80 | 44 | 2.0 | 3.0 | 0.00 | 0.18 | 0.00 | 93 | 1017.3 |
| 20260901043223 | 80 | 28 | 3.0 | 3.0 | 0.00 | 0.18 | 0.00 | 93 | 1017.3 |
| 20260901042728 | 80 | 50 | 3.0 | 3.0 | 0.00 | 0.18 | 0.00 | 93 | 1017.4 |
| 20260901042232 | 80 | 59 | 2.0 | 3.0 | 0.00 | 0.18 | 0.00 | 93 | 1017.4 |
| 20260901041716 | 80 | 64 | 0.0 | 2.0 | 0.00 | 0.18 | 0.00 | 93 | 1017.3 |
| 20260901041221 | 80 | 64 | 1.0 | 2.0 | 0.00 | 0.18 | 0.00 | 93 | 1017.4 |
| 20260901040717 | 80 | 49 | 1.0 | 2.0 | 0.00 | 0.18 | 0.00 | 93 | 1017.4 |
| 20260901040217 | 80 | 22 | 1.0 | 3.0 | 0.00 | 0.18 | 0.18 | 93 | 1017.4 |
| 20260901035721 | 80 | 25 | 2.0 | 4.0 | 0.00 | 0.18 | 0.18 | 93 | 1017.4 |
| 20260901035228 | 80 | 37 | 2.0 | 4.0 | 0.00 | 0.18 | 0.18 | 93 | 1017.4 |
| 20260901034714 | 80 | 45 | 3.0 | 4.0 | 0.00 | 0.18 | 0.18 | 93 | 1017.6 |
| 20260901034239 | 80 | 42 | 3.0 | 4.0 | 0.00 | 0.18 | 0.18 | 93 | 1017.6 |
| 20260901033728 | 80 | 35 | 3.0 | 5.0 | 0.00 | 0.18 | 0.18 | 93 | 1017.6 |
| 20260901033214 | 80 | 30 | 4.0 | 7.0 | 0.00 | 0.18 | 0.18 | 93 | 1017.5 |
| 20260901032719 | 80 | 36 | 5.0 | 7.0 | 0.00 | 0.18 | 0.18 | 93 | 1017.6 |
| 20260901032245 | 80 | 39 | 3.0 | 5.0 | 0.00 | 0.18 | 0.18 | 93 | 1017.6 |
| 20260901031748 | 80 | 40 | 4.0 | 6.0 | 0.00 | 0.18 | 0.18 | 93 | 1017.7 |
| 20260901031209 | 80 | 37 | 5.0 | 6.0 | 0.00 | 0.18 | 0.18 | 93 | 1017.7 |
| 20260901030714 | 80 | 42 | 5.0 | 6.0 | 0.00 | 0.18 | 0.18 | 93 | 1017.8 |
| 20260901030218 | 80 | 27 | 4.0 | 6.0 | 0.00 | 0.18 | 0.18 | 93 | 1017.7 |
| 20260901025721 | 80 | 30 | 5.0 | 8.0 | 0.00 | 0.18 | 0.18 | 93 | 1017.8 |
| 20260901025246 | 80 | 35 | 4.0 | 8.0 | 0.00 | 0.18 | 0.18 | 93 | 1017.8 |
| 20260901024710 | 80 | 32 | 6.0 | 7.0 | 0.00 | 0.18 | 0.18 | 92 | 1017.8 |
| 20260901024215 | 80 | 29 | 6.0 | 8.0 | 0.00 | 0.18 | 0.18 | 93 | 1017.9 |
| 20260901023720 | 80 | 17 | 6.0 | 8.0 | 0.00 | 0.18 | 0.18 | 93 | 1017.9 |
| 20260901023209 | 80 | 12 | 6.0 | 8.0 | 0.00 | 0.18 | 0.18 | 92 | 1017.9 |
| 20260901022733 | 80 | 28 | 6.0 | 8.0 | 0.00 | 0.18 | 0.18 | 92 | 1017.9 |
| 20260901022239 | 80 | 25 | 6.0 | 8.0 | 0.00 | 0.18 | 0.18 | 92 | 1017.9 |
| 20260901021722 | 80 | 28 | 5.0 | 7.0 | 0.00 | 0.18 | 0.18 | 92 | 1017.9 |
| 20260901021227 | 80 | 35 | 4.0 | 6.0 | 0.00 | 0.18 | 0.18 | 92 | 1017.7 |
| 20260901020743 | 80 | 39 | 4.0 | 6.0 | 0.00 | 0.18 | 0.18 | 92 | 1017.6 |
| 20260901020228 | 80 | 51 | 5.0 | 7.0 | 0.00 | 0.18 | 0.18 | 92 | 1017.5 |
| 20260901015710 | 80 | 38 | 4.0 | 7.0 | 0.00 | 0.18 | 0.18 | 92 | 1017.5 |
| 20260901015214 | 80 | 44 | 4.0 | 7.0 | 0.00 | 0.18 | 0.18 | 91 | 1017.5 |
| 20260901014719 | 80 | 40 | 5.0 | 6.0 | 0.00 | 0.18 | 0.18 | 91 | 1017.5 |
| 20260901014224 | 80 | 43 | 5.0 | 8.0 | 0.00 | 0.18 | 0.18 | 91 | 1017.4 |
| 20260901013749 | 80 | 49 | 6.0 | 8.0 | 0.00 | 0.18 | 0.18 | 91 | 1017.4 |
| 20260901013233 | 80 | 37 | 5.0 | 7.0 | 0.00 | 0.18 | 0.18 | 91 | 1017.3 |
| 20260901012717 | 81 | 40 | 5.0 | 7.0 | 0.00 | 0.18 | 0.18 | 91 | 1017.2 |
| 20260901012241 | 81 | 53 | 5.0 | 7.0 | 0.00 | 0.18 | 0.18 | 91 | 1017.2 |
| 20260901011724 | 81 | 40 | 5.0 | 6.0 | 0.00 | 0.18 | 0.18 | 90 | 1017.2 |
| 20260901011213 | 81 | 45 | 5.0 | 6.0 | 0.00 | 0.18 | 0.18 | 90 | 1017.0 |
| 20260901010718 | 81 | 54 | 4.0 | 6.0 | 0.00 | 0.18 | 0.18 | 90 | 1017.0 |
| 20260901010223 | 81 | 59 | 5.0 | 7.0 | 0.00 | 0.18 | 0.18 | 89 | 1016.8 |
| 20260901005729 | 81 | 61 | 5.0 | 7.0 | 0.00 | 0.18 | 0.18 | 89 | 1016.9 |
| 20260901005212 | 81 | 63 | 5.0 | 6.0 | 0.00 | 0.18 | 0.18 | 89 | 1016.8 |
| 20260901004717 | 82 | 57 | 4.0 | 6.0 | 0.00 | 0.18 | 0.18 | 89 | 1016.7 |
| 20260901004221 | 82 | 59 | 4.0 | 7.0 | 0.00 | 0.18 | 0.18 | 89 | 1016.7 |
| 20260901003745 | 82 | 59 | 5.0 | 7.0 | 0.00 | 0.18 | 0.18 | 89 | 1016.7 |
| 20260901003229 | 82 | 67 | 6.0 | 8.0 | 0.00 | 0.18 | 0.18 | 88 | 1016.7 |
| 20260901002713 | 82 | 60 | 6.0 | 8.0 | 0.00 | 0.18 | 0.18 | 88 | 1016.6 |
| 20260901002218 | 82 | 60 | 6.0 | 8.0 | 0.00 | 0.18 | 0.18 | 88 | 1016.6 |
| 20260901001218 | 82 | 59 | 6.0 | 7.0 | 0.00 | 0.18 | 0.18 | 87 | 1016.5 |
| 20260901000715 | 82 | 61 | 4.0 | 7.0 | 0.00 | 0.18 | 0.18 | 86 | 1016.5 |
| 20260901000219 | 82 | 50 | 5.0 | 7.0 | 0.00 | 0.18 | 0.18 | 87 | 1016.4 |
| 20260831235723 | 83 | 53 | 5.0 | 7.0 | 0.00 | 0.18 | 0.18 | 87 | 1016.3 |
| 20260831235228 | 83 | 39 | 5.0 | 7.0 | 0.00 | 0.18 | 0.18 | 87 | 1016.3 |
| 20260831234712 | 83 | 48 | 5.0 | 7.0 | 0.00 | 0.18 | 0.18 | 87 | 1016.2 |
| 20260831234237 | 83 | 56 | 6.0 | 7.0 | 0.00 | 0.18 | 0.18 | 87 | 1016.3 |
| 20260831233720 | 83 | 49 | 6.0 | 7.0 | 0.00 | 0.18 | 0.18 | 87 | 1016.3 |
| 20260831233246 | 83 | 56 | 6.0 | 8.0 | 0.00 | 0.18 | 0.18 | 86 | 1016.2 |
| 20260831232709 | 83 | 56 | 6.0 | 8.0 | 0.00 | 0.18 | 0.18 | 85 | 1016.2 |
| 20260831232234 | 83 | 55 | 7.0 | 9.0 | 0.00 | 0.18 | 0.18 | 86 | 1016.3 |
| 20260831231718 | 83 | 68 | 7.0 | 10.0 | 0.00 | 0.18 | 0.18 | 84 | 1016.3 |
| 20260831231227 | 83 | 80 | 7.0 | 11.0 | 0.00 | 0.18 | 0.18 | 85 | 1016.4 |
| 20260831230712 | 84 | 75 | 8.0 | 11.0 | 0.00 | 0.18 | 0.18 | 84 | 1016.5 |
| 20260831230218 | 84 | 77 | 8.0 | 11.0 | 0.00 | 0.18 | 0.18 | 85 | 1016.5 |
| 20260831225721 | 84 | 74 | 7.0 | 10.0 | 0.00 | 0.18 | 0.18 | 85 | 1016.5 |
| 20260831225226 | 84 | 92 | 8.0 | 10.0 | 0.00 | 0.18 | 0.18 | 84 | 1016.5 |
| 20260831224730 | 84 | 80 | 7.0 | 10.0 | 0.00 | 0.18 | 0.18 | 84 | 1016.6 |
| 20260831224213 | 84 | 87 | 8.0 | 10.0 | 0.00 | 0.18 | 0.18 | 84 | 1016.5 |
| 20260831223718 | 84 | 85 | 7.0 | 10.0 | 0.00 | 0.18 | 0.18 | 85 | 1016.5 |
| 20260831223223 | 84 | 86 | 8.0 | 10.0 | 0.00 | 0.18 | 0.18 | 85 | 1016.5 |
| 20260831222727 | 84 | 76 | 7.0 | 12.0 | 0.00 | 0.18 | 0.18 | 84 | 1016.5 |
| 20260831222212 | 84 | 77 | 10.0 | 12.0 | 0.00 | 0.18 | 0.18 | 84 | 1016.4 |
| 20260831221721 | 84 | 80 | 8.0 | 11.0 | 0.00 | 0.18 | 0.18 | 85 | 1016.4 |
| 20260831221226 | 84 | 77 | 6.0 | 11.0 | 0.00 | 0.18 | 0.18 | 85 | 1016.5 |
| 20260831220722 | 84 | 80 | 7.0 | 11.0 | 0.00 | 0.18 | 0.18 | 85 | 1016.5 |
| 20260831220227 | 84 | 78 | 8.0 | 11.0 | 0.00 | 0.18 | 0.18 | 85 | 1016.5 |
| 20260831215711 | 84 | 87 | 8.0 | 12.0 | 0.00 | 0.18 | 0.18 | 86 | 1016.7 |
| 20260831215217 | 84 | 70 | 9.0 | 11.0 | 0.00 | 0.18 | 0.18 | 86 | 1016.7 |
| 20260831214721 | 84 | 66 | 9.0 | 14.0 | 0.00 | 0.18 | 0.18 | 86 | 1016.7 |
| 20260831214226 | 84 | 69 | 10.0 | 14.0 | 0.00 | 0.18 | 0.18 | 86 | 1016.6 |
| 20260831213710 | 84 | 68 | 11.0 | 15.0 | 0.00 | 0.18 | 0.18 | 86 | 1016.5 |
| 20260831213215 | 84 | 75 | 10.0 | 15.0 | 0.00 | 0.18 | 0.18 | 87 | 1016.5 |
| 20260831212719 | 84 | 68 | 11.0 | 14.0 | 0.00 | 0.18 | 0.18 | 86 | 1016.5 |
| 20260831212228 | 84 | 78 | 11.0 | 14.0 | 0.00 | 0.18 | 0.18 | 87 | 1016.5 |
| 20260831211713 | 84 | 59 | 12.0 | 16.0 | 0.01 | 0.18 | 0.18 | 87 | 1016.6 |
| 20260831211217 | 84 | 77 | 14.0 | 16.0 | 0.02 | 0.18 | 0.18 | 86 | 1016.5 |
| 20260831210721 | 84 | 66 | 12.0 | 14.0 | 0.02 | 0.18 | 0.18 | 88 | 1016.5 |
| 20260831210227 | 83 | 61 | 10.0 | 12.0 | 0.02 | 0.18 | 0.18 | 88 | 1016.5 |
| 20260831205711 | 83 | 63 | 8.0 | 10.0 | 0.03 | 0.18 | 0.18 | 90 | 1016.4 |
| 20260831205217 | 82 | 48 | 6.0 | 8.0 | 0.03 | 0.18 | 0.18 | 90 | 1016.4 |
| 20260831204741 | 82 | 43 | 4.0 | 7.0 | 0.04 | 0.18 | 0.18 | 90 | 1016.5 |
| 20260831204224 | 81 | 30 | 4.0 | 6.0 | 0.06 | 0.18 | 0.18 | 90 | 1016.5 |
| 20260831203709 | 81 | 35 | 4.0 | 5.0 | 0.08 | 0.18 | 0.18 | 90 | 1016.5 |
| 20260831203215 | 81 | 46 | 2.0 | 3.0 | 0.13 | 0.18 | 0.18 | 91 | 1016.6 |
| 20260831202723 | 80 | 108 | 0.0 | 2.0 | 0.17 | 0.18 | 0.18 | 91 | 1016.7 |
| 20260831202228 | 81 | 106 | 1.0 | 2.0 | 0.18 | 0.18 | 0.18 | 92 | 1016.7 |
| 20260831201713 | 81 | 122 | 1.0 | 2.0 | 0.17 | 0.17 | 0.17 | 92 | 1016.7 |